EW6379 Weather Reports


Display with metric or nautical units.
time (UTC)temp
F
wind
direction
speed
MPH
gust
MPH
rain 1hr
in
rain 24hr
in
rain mn
in
humidity
%
barometer
mb
20260503031532 71 0.0 0.0 0.00 0.00 0.00 34 1010.7
20260503030030 73 0.0 0.0 0.00 0.00 0.00 33 1010.6
20260503024530 74 2.0 6.0 0.00 0.00 0.00 31 1010.5
20260503023030 75 5.0 7.0 0.00 0.00 0.00 30 1010.4
20260503021529 76 0.0 0.0 0.00 0.00 0.00 28 1010.5
20260503020028 78 0.0 3.0 0.00 0.00 0.00 27 1010.4
20260503014527 77 4.0 7.0 0.00 0.00 0.00 27 1010.6
20260503013026 78 7.0 9.0 0.00 0.00 0.00 27 1010.7
20260503011524 78 6.0 8.0 0.00 0.00 0.00 27 1010.6
20260503010025 78 6.0 9.0 0.00 0.00 0.00 26 1010.7
20260503004517 78 6.0 10.0 0.00 0.00 0.00 27 1010.8
20260503003011 77 6.0 12.0 0.00 0.00 0.00 28 1010.9
20260503001509 77 7.0 10.0 0.00 0.00 0.00 28 1011.0
20260503000006 77 9.0 16.0 0.00 0.00 0.00 28 1011.1
20260502234510 78 10.0 13.0 0.00 0.00 0.00 28 1011.1
20260502233002 78 5.0 12.0 0.00 0.00 0.00 29 1011.4
20260502231503 77 10.0 14.0 0.00 0.00 0.00 26 1011.5
20260502230059 77 9.0 14.0 0.00 0.00 0.00 27 1011.7
20260502224557 79 7.0 11.0 0.00 0.00 0.00 25 1011.8
20260502223055 79 2.0 11.0 0.00 0.00 0.00 24 1011.9
20260502221554 79 4.0 12.0 0.00 0.00 0.00 24 1012.0
20260502220051 79 0.0 11.0 0.00 0.00 0.00 24 1012.1
20260502214548 79 3.0 7.0 0.00 0.00 0.00 24 1012.2
20260502213046 79 1.0 11.0 0.00 0.00 0.00 25 1012.4
20260502211544 80 3.0 5.0 0.00 0.00 0.00 25 1012.5
20260502210041 79 0.0 5.0 0.00 0.00 0.00 26 1012.8
20260502204537 78 1.0 7.0 0.00 0.00 0.00 27 1012.9
20260502203034 76 1.0 8.0 0.00 0.00 0.00 26 1013.1
20260502201532 75 5.0 9.0 0.00 0.00 0.00 27 1013.3
20260502200033 75 4.0 12.0 0.00 0.00 0.00 27 1013.4
20260502194531 75 6.0 11.0 0.00 0.00 0.00 27 1013.5
20260502193028 75 7.0 12.0 0.00 0.00 0.00 27 1013.6
20260502191524 73 2.0 9.0 0.00 0.00 0.00 34 1013.7
20260502190020 72 4.0 10.0 0.00 0.00 0.00 36 1013.9
20260502184518 71 4.0 12.0 0.00 0.00 0.00 36 1014.0
20260502183017 69 6.0 8.0 0.00 0.00 0.00 39 1014.2
20260502181513 68 5.0 10.0 0.00 0.00 0.00 39 1014.4
20260502163059 64 7.0 16.0 0.00 0.00 0.00 41 1014.7
20260502161557 63 13.0 16.0 0.00 0.00 0.00 41 1014.5
20260502151553 61 8.0 12.0 0.00 0.00 0.00 44 1015.0
20260502123045 54 5.0 7.0 0.00 0.00 0.00 58 1014.8
20260502121542 54 5.0 8.0 0.00 0.00 0.00 58 1014.5
20260502114531 56 0.0 2.0 0.00 0.00 0.00 52 1014.3
20260502113030 58 0.0 3.0 0.00 0.00 0.00 48 1014.4
20260502111536 57 4.0 5.0 0.00 0.00 0.00 49 1014.3
20260502110033 57 0.0 4.0 0.00 0.00 0.00 49 1014.2
20260502104526 57 0.0 4.0 0.00 0.00 0.00 48 1014.1
20260502103024 58 0.0 2.0 0.00 0.00 0.00 49 1014.0
20260502101523 57 0.0 0.0 0.00 0.00 0.00 49 1014.0
20260502091517 57 0.0 0.0 0.00 0.00 0.00 49 1013.5
20260502070054 61 2.0 4.0 0.00 0.00 0.00 43 1013.2
20260502064558 61 0.0 0.0 0.00 0.00 0.00 43 1013.1
20260502063056 60 1.0 5.0 0.00 0.00 0.00 44 1013.1
20260502061555 62 2.0 4.0 0.00 0.00 0.00 41 1013.0
20260502060054 61 4.0 5.0 0.00 0.00 0.00 44 1013.0
20260502054600 61 1.0 3.0 0.00 0.00 0.00 43 1013.0
20260502053055 65 0.0 0.0 0.00 0.00 0.00 38 1012.9
20260502051551 64 0.0 0.0 0.00 0.00 0.00 38 1012.9
20260502050052 63 0.0 3.0 0.00 0.00 0.00 39 1012.9
20260502044550 63 3.0 4.0 0.00 0.00 0.00 39 1012.7
20260502043050 63 0.0 4.0 0.00 0.00 0.00 40 1012.6
20260502041548 64 5.0 6.0 0.00 0.00 0.00 40 1012.4
20260502040048 66 4.0 5.0 0.00 0.00 0.00 36 1012.3
20260502034548 67 2.0 3.0 0.00 0.00 0.00 34 1012.2
20260502033049 68 0.0 2.0 0.00 0.00 0.00 33 1012.1